Zurück zum Katalog

STARLINK-4414

AktivKommunikationSSO
NORAD 53213·PAYLOAD·🇺🇸 United States

Gestartet Jul 22, 2022 von Vandenberg Space Force Base

Loading…

Nächste Überflüge (nächste 24 Stunden)

TLE

AktuellSource: CelesTrak SupGP

Epoche: Sep 14, 2026, 22:01 UTC

1 53213C 22084AA  26257.91784722  .00004751  00000+0  14752-3 0  2577
2 53213  97.2839 312.8616 0001761  92.6124 150.1148 15.33426797    18

Verfolge STARLINK-4414 in Echtzeit mit AllMySat

Download on the App Store